{"data":{"norad_id":46674,"intl_designator":"2020-073E","name":"STARLINK-1718","alt_names":[],"object_type":"PAYLOAD","status":"ACTIVE","operator":null,"country":"US","launch_date":"2020-10-18","launch_site_code":"AFETR","launch_vehicle":null,"mission":null,"orbit_class":"UNKNOWN","rcs_meters":null,"size_class":null,"mass_kg":null,"dimensions":null,"purposes":["comms"],"wikipedia_slug":null,"has_3d_model":false,"image_url":null,"decayed_at":null,"tle_current":{"epoch":"2026-08-24T03:06:32.840928Z","epoch_age_seconds":2386704,"freshness":"OLD","line1":"1 46674U 20073E   26236.12954677  .06204112  12259-4  61377-3 0  9995","line2":"2 46674  53.0184 111.9298 0010187 258.7606 101.2295 16.37224108323734","mean_motion":16.37224108,"eccentricity":0.0010187,"inclination_deg":53.0184,"raan_deg":111.9298,"arg_perigee_deg":258.7606,"mean_anomaly_deg":101.2295,"bstar":0.00061377,"rev_number":32373,"period_min":87.953750067795,"perigee_km":166.52334920142,"apogee_km":179.87103748694,"semimajor_km":6551.3341933442,"source":"CELESTRAK","updated_at":"2026-08-24T09:00:32.622887Z"}}}